Regional Weather Roundup
Issued by NWS

Home | Current Version | Previous Version | Graphics & Text | Print | Product List | Glossary Off
Versions: 1 2 3 4 5 6 7 8 9 10 11 12 13 14 15 16 17 18 19 20 21 22 23 24 25 26 27 28 29 30 31 32 33 34 35 36 37 38 39 40 41 42 43 44 45 46 47 48 49 50

449
ASUS43 KDMX 280306
RWRIA

WEATHER ROUNDUP FOR IOWA
NATIONAL WEATHER SERVICE DES MOINES IA
1000 PM CDT SAT MAY 27 2017

NOTE: "FAIR" INDICATES FEW OR NO CLOUDS BELOW 12,000 FEET WITH NO
SIGNIFICANT WEATHER AND/OR OBSTRUCTIONS TO VISIBILITY.

* - THESE STATIONS ARE NOT NWS STATIONS...THUS NOT UNDER NWS
QUALITY CONTROL.  THEY ALSO DO NOT REPORT WEATHER SUCH
AS PRECIPITATION OR FOG.

IAZ001>003-012>014-020>022-031>034-043>046-280400-
   NORTHWEST IOWA

CITY           SKY/WX    TMP DP  RH WIND       PRES   REMARKS
CARROLL *      CLEAR     61  59  94 NW3       29.89R
CHEROKEE *     LGT RAIN  61  55  80 NW7       29.92R
DENISON *      CLOUDY    59  52  77 CALM      29.92R
LE MARS *      CLOUDY    61  55  82 NW3       29.93F
ORANGE CITY *  CLOUDY    59  55  88 W5        29.92F
SHELDON *      CLOUDY    59  55  88 W7        29.90S
SIOUX CITY     LGT RAIN  62  54  74 NW7       29.92S
SPENCER        LGT RAIN  60  55  83 W6        29.91R
STORM LAKE *   CLOUDY    63  50  63 NW12      29.92R
$$

IAZ055>058-069>071-079>083-090>094-280400-
   SOUTHWEST IOWA

CITY           SKY/WX    TMP DP  RH WIND       PRES   REMARKS
ATLANTIC *     PTCLDY    59  57  94 CALM      29.89S
AUDUBON *      CLOUDY    59  55  88 CALM      29.91R
CLARINDA *     CLEAR     63  59  88 N6        29.91R
COUNCIL BLFS * CLOUDY    63  57  82 CALM      29.90S
CRESTON *      PTCLDY    61  59  94 N9        29.90R
HARLAN  *      CLOUDY    63  57  82 N5        29.93R
LAMONI         PTCLDY    62  59  90 N12       29.87R
RED OAK *      PTCLDY    61  57  88 N5        29.90R
SHENANDOAH *   CLEAR     63  59  88 N3        29.90R
$$

IAZ047>049-059>061-072>074-084-280400-
   CENTRAL IOWA

CITY           SKY/WX    TMP DP  RH WIND       PRES   REMARKS
AMES           CLEAR     57  55  93 CALM      29.89R
ANKENY *       CLEAR     59  55  88 CALM      29.90R
BOONE *        CLEAR     59  59 100 CALM      29.89R
CHARITON *     CLEAR     59  57  94 N9        29.86F
DES MOINES     PTCLDY    62  55  77 N6        29.88R
GRINNELL*      MOCLDY    59  55  86 N8        29.88R
KNOXVILLE *    CLEAR     59  55  88 NW8       29.86R
MARSHALLTOWN   CLOUDY    59  56  89 N5        29.87R
NEWTON *       CLEAR     57  54  88 N9        29.87R
PELLA *        PTCLDY    58  55  87 NW7       29.88R
PERRY *          N/A     61  57  88 CALM      29.90R
$$

IAZ004>006-015-016-023>025-035-036-280400-
   NORTH CENTRAL IOWA

CITY           SKY/WX    TMP DP  RH WIND       PRES   REMARKS
ALGONA *       CLOUDY    64  52  63 CALM      29.90R
CLARION *      CLEAR     57  52  82 SE5       29.89R
ESTHERVILLE    CLOUDY    62  52  69 W6        29.89R
FORT DODGE *   CLEAR     55  48  76 CALM      29.91R
MASON CITY     PTCLDY    57  49  74 CALM      29.89S
FOREST CITY *  CLOUDY    55  39  54 CALM      29.88S
WEBSTER CITY * CLEAR     59  54  82 S3        29.88R
IOWA FALLS *     N/A     59  55  88 NW3       29.90R
$$

IAZ007>011-017>019-026>030-037>042-050>054-066-280400-
   NORTHEAST IOWA

CITY           SKY/WX    TMP DP  RH WIND       PRES   REMARKS
CEDAR RAPIDS   PTCLDY    59  59 100 N6        29.84S
CHARLES CITY * CLOUDY    61  55  82 N5        29.88S
CLINTON *      CLOUDY    65  62  90 NE3       29.84R
DECORAH *      CLOUDY    61  54  77 N6        29.86F
DUBUQUE        CLOUDY    61  58  90 NE6       29.84R
MONTICELLO *   CLOUDY    63  61  94 CALM      29.84R
OELWEIN *      CLOUDY    61  57  88 N5        29.86S
WATERLOO       CLOUDY    60  53  77 N3        29.85S
$$

IAZ064-065-067-068-078-280400-
   EAST CENTRAL IOWA

CITY           SKY/WX    TMP DP  RH WIND       PRES   REMARKS
DAVENPORT      CLOUDY    67  61  81 NE3       29.84R
IOWA CITY      MOCLDY    63  58  83 N8        29.85R
MT. PLEASANT * CLOUDY    66  62  85 N9        29.81S
MUSCATINE *    CLOUDY    64  61  88 CALM      29.83R
QUAD CITIES    CLOUDY    66  60  81 CALM      29.82R
$$

IAZ062-063-075>077-085>089-095>099-280400-
   SOUTHEAST IOWA

CITY           SKY/WX    TMP DP  RH WIND       PRES   REMARKS
BURLINGTON     CLOUDY    67  64  90 N7        29.80R
FAIRFIELD *    CLOUDY    63  61  94 N12       29.83R
FORT MADISON * CLOUDY    66  64  94 NE3       29.81F
KEOKUK *       CLOUDY    68  64  88 N6        29.79S
OSKALOOSA *      N/A     60  56  88 NE8       29.85R
CENTERVILLE *  CLOUDY    63  61  94 N7        29.86R
OTTUMWA        PTCLDY    61  59  93 N8        29.84R
WASHINGTON *   CLOUDY    63  63 100 N9        29.85R
$$

ABBREVIATIONS USED IN REMARKS
   TC - TEMPERATURES IN CELSIUS
  WCI - WIND CHILL INDEX
   HX - HEAT INDEX
  VSB - VISIBILITY
$$





USA.gov is the U.S. government's official web portal to all federal, state and local government web resources and services.